Location: Newark
(43.6583°N, 1.6617°E)
Time: 02:21:03
(UTC+00:00)

Courier 1B Rocket - All Passes

Search period start: 25 August 2019 00:00
Search period end: 04 September 2019 00:00
Orbit: 920 x 1202 km, 28.3° (Epoch: 24 August)

Date Brightness Start Highest point End Pass type
(mag) Time Alt. Az. Time Alt. Az. Time Alt. Az.
25 Aug - 01:20:12 10° S 01:23:41 14° SSE 01:27:16 10° SE visible
25 Aug - 03:10:35 10° SW 03:16:07 23° S 03:21:53 10° SE visible
25 Aug - 05:03:08 10° WSW 05:08:47 23° S 05:14:34 10° SE daylight
25 Aug - 06:57:48 10° SW 07:01:20 14° SSW 07:04:52 10° S daylight
26 Aug - 02:10:13 10° SSW 02:15:16 21° SSE 02:20:32 10° ESE visible
26 Aug - 04:02:12 10° SW 04:07:52 24° S 04:13:45 10° SE visible
26 Aug - 05:55:52 10° SW 06:00:29 17° SSW 06:05:10 10° SSE daylight
27 Aug - 01:10:11 10° SSW 01:14:29 17° SSE 01:18:57 10° SE visible
27 Aug - 03:01:27 10° SW 03:06:58 24° S 03:12:44 10° SE visible
27 Aug - 04:54:28 10° WSW 04:59:36 20° SSW 05:04:53 10° SSE daylight
28 Aug - 00:10:43 10° S 00:13:46 13° SSE 00:16:53 10° SE night (unlit)
28 Aug - 02:00:55 10° SW 02:06:07 22° S 02:11:34 10° SE visible
28 Aug - 03:53:23 10° SW 03:58:43 22° S 04:04:16 10° SE visible
28 Aug - 05:48:02 10° SW 05:51:15 13° SSW 05:54:30 10° S daylight
29 Aug - 01:00:38 10° SSW 01:05:20 20° SSE 01:10:14 10° SE visible
29 Aug - 02:52:31 10° SW 02:57:51 23° S 03:03:26 10° SE visible
29 Aug - 04:46:09 10° SW 04:50:25 16° SSW 04:54:48 10° SSE visible
30 Aug - 00:00:41 10° SSW 00:04:36 16° SSE 00:08:39 10° SE night (unlit)
30 Aug - 01:51:51 10° SW 01:57:01 23° S 02:02:26 10° SE visible
30 Aug - 03:44:48 10° SW 03:49:35 19° SSW 03:54:31 10° SSE visible
30 Aug - 23:01:21 10° S 23:03:56 12° SSE 23:06:33 10° SE night (unlit)
31 Aug - 00:51:23 10° SW 00:56:13 21° S 01:01:17 10° SE visible
31 Aug - 02:43:47 10° SW 02:48:44 21° S 02:53:55 10° SE visible
31 Aug - 04:38:34 10° SW 04:41:13 12° SSW 04:43:54 10° S visible
31 Aug - 23:51:09 10° SSW 23:55:29 19° SSE 23:59:59 10° SE night (unlit)
01 Sep - 01:42:58 10° SW 01:47:55 22° S 01:53:07 10° SE visible
01 Sep - 03:36:37 10° SW 03:40:25 15° SSW 03:44:20 10° SSE visible
01 Sep - 22:51:14 10° SSW 22:54:48 15° SSE 22:58:27 10° SE night (unlit)
02 Sep - 00:42:21 10° SW 00:47:09 21° S 00:52:10 10° SE night (unlit)
02 Sep - 02:35:18 10° SW 02:39:38 18° SSW 02:44:08 10° SSE visible
02 Sep - 21:51:58 10° S 21:54:09 12° SSE 21:56:22 10° SE night (unlit)
02 Sep - 23:41:54 10° SW 23:46:25 20° S 23:51:05 10° SE night (unlit)
03 Sep - 01:34:18 10° SW 01:38:51 19° S 01:43:36 10° SE visible
03 Sep - 03:29:31 10° SW 03:31:16 11° SSW 03:33:03 10° S visible
03 Sep - 22:41:40 10° SSW 22:45:43 18° S 22:49:52 10° SE night (unlit)
